GLOBALSTAR M027 [-]

Last updated on Fri Dec 29 2023 00:02:56 GMT+0000 (Coordinated Universal Time)

1 25884U 99043B 23361.76054520 -.00000045 00000+0 69583-3 0 9999 2 25884 52.0182 215.9901 0020563 200.8844 159.1110 11.04366999 81865
UTC large
Height (km)
Speed (km/s)
/
Latitude / Longitude
Inclination (degrees)
Orbital Period (minutes)
Azimuth
Elevation
Range (km)
Doppler Factor

Next 0 passes for location: London (51.5072 / 0.1276)

Sorry there are no passes over London.